Date String (YYYY-MM-DD hh:mm:ss) UTC,Instrument flags,absolute air pressure of the measurement (hPa),sample flow rate (lpm),inlet stack bypass flow (lpm),air temperature of the measurement (°C),ambient temperature measured by the external sensor (°C),aerosol sample conditioner tube jacket temperature (°C),OPC LED temperature (°C),internal box temperature (°C),relative humidity of the measurement (%),span deviation,mass concentration of particles derived from Lorenz-Mie calculation of OPC scattering (μg/m³),mass concentration of particles derived from Lorenz-Mie calculation of OPC scattering (μg/m³),mass concentration of particles derived from Lorenz-Mie calculation of OPC scattering (μg/m³)
DateTimeUTC,F1_M11,P_M11,Q1_M11,Q2_M11,T1_M11,T2_M11,T3_M11,T4_M11,T5_M11,U1_M11,ZSPAN_M11,X2_M11,X0_M11,X1_M11
2024-04-09 00:00:00,SystemResetWarning,0826.5,5.00,000.00,024.3,023.6,000.0,032.6,026.1,008.2,0000.0,0004.33,0018.63,0003.21
2024-04-09 00:01:00,SystemResetWarning,0826.5,5.00,000.00,024.3,023.6,000.0,032.7,026.0,008.3,0000.0,0004.32,0019.33,0003.19
2024-04-09 00:02:00,SystemResetWarning,0826.5,5.00,000.00,024.3,023.6,000.0,032.7,026.0,007.8,0000.0,0004.35,0019.15,0003.18
2024-04-09 00:03:00,SystemResetWarning,0826.5,4.99,000.00,024.3,023.6,000.0,032.7,026.0,007.8,0000.0,0004.38,0019.16,0003.18
2024-04-09 00:04:00,SystemResetWarning,0826.5,4.99,000.00,024.3,023.6,000.0,032.7,026.0,007.9,0000.0,0004.40,0017.82,0003.18
2024-04-09 00:05:00,SystemResetWarning,0826.5,5.00,000.00,024.3,023.6,000.0,032.7,026.0,007.8,0000.0,0004.41,0016.55,0003.18
2024-04-09 00:06:00,SystemResetWarning,0826.4,5.01,000.00,024.3,023.6,000.0,032.7,026.0,007.7,0000.0,0004.43,0016.93,0003.19
2024-04-09 00:07:00,SystemResetWarning,0826.4,5.00,000.00,024.3,023.6,000.0,032.7,026.0,007.7,0000.0,0004.43,0017.64,0003.18
2024-04-09 00:08:00,SystemResetWarning,0826.5,4.99,000.00,024.3,023.6,000.0,032.7,026.1,008.1,0000.0,0004.44,0017.92,0003.18
2024-04-09 00:09:00,SystemResetWarning,0826.5,4.99,000.00,024.3,023.6,000.0,032.7,026.0,007.8,0000.0,0004.36,0016.95,0003.17
2024-04-09 00:10:00,SystemResetWarning,0826.5,5.00,000.00,024.3,023.6,000.0,032.7,026.1,007.7,0000.0,0004.33,0016.44,0003.18
2024-04-09 00:11:00,SystemResetWarning,0826.5,5.01,000.00,024.3,023.6,000.0,032.7,026.1,007.8,0000.0,0004.32,0016.08,0003.17
2024-04-09 00:12:00,SystemResetWarning,0826.5,4.99,000.00,024.3,023.6,000.0,032.7,026.0,007.9,0000.0,0004.30,0014.88,0003.16
2024-04-09 00:13:00,SystemResetWarning,0826.5,5.00,000.00,024.3,023.6,000.0,032.7,026.0,008.0,0000.0,0004.27,0014.86,0003.16
2024-04-09 00:14:00,SystemResetWarning,0826.5,5.01,000.00,024.3,023.6,000.0,032.7,026.0,007.9,0000.0,0004.20,0015.27,0003.14
2024-04-09 00:15:00,SystemResetWarning,0826.5,5.00,000.00,024.3,023.6,000.0,032.7,026.0,007.9,0000.0,0004.19,0015.28,0003.13
2024-04-09 00:16:00,SystemResetWarning,0826.5,5.01,000.00,024.3,023.6,000.0,032.7,026.0,007.6,0000.0,0004.19,0015.06,0003.13
2024-04-09 00:17:00,SystemResetWarning,0826.5,5.00,000.00,024.3,023.6,000.0,032.7,026.0,007.7,0000.0,0004.20,0014.04,0003.12
2024-04-09 00:18:00,SystemResetWarning,0826.5,5.00,000.00,024.3,023.5,000.0,032.7,026.0,007.9,0000.0,0004.19,0014.11,0003.13
2024-04-09 00:19:00,SystemResetWarning,0826.5,5.00,000.00,024.3,023.5,000.0,032.7,026.0,007.8,0000.0,0004.18,0013.66,0003.13
2024-04-09 00:20:00,SystemResetWarning,0826.5,5.00,000.00,024.3,023.5,000.0,032.7,026.0,007.8,0000.0,0004.17,0013.00,0003.13
2024-04-09 00:21:00,SystemResetWarning,0826.5,5.00,000.00,024.3,023.5,000.0,032.7,026.0,007.7,0000.0,0004.18,0013.80,0003.13
2024-04-09 00:22:00,SystemResetWarning,0826.5,5.00,000.00,024.3,023.6,000.0,032.7,026.0,007.8,0000.0,0004.21,0013.91,0003.14
2024-04-09 00:23:00,SystemResetWarning,0826.6,5.01,000.00,024.3,023.6,000.0,032.7,026.1,007.8,0000.0,0004.22,0014.36,0003.14
2024-04-09 00:24:00,SystemResetWarning,0826.6,5.01,000.00,024.3,023.6,000.0,032.7,026.1,007.9,0000.0,0004.22,0013.97,0003.15
2024-04-09 00:25:00,SystemResetWarning,0826.6,5.00,000.00,024.3,023.6,000.0,032.7,026.1,007.9,0000.0,0004.21,0013.27,0003.15
2024-04-09 00:26:00,SystemResetWarning,0826.6,5.00,000.00,024.3,023.6,000.0,032.7,026.1,007.9,0000.0,0004.19,0012.81,0003.16
2024-04-09 00:27:00,SystemResetWarning,0826.6,5.00,000.00,024.3,023.6,000.0,032.7,026.1,007.8,0000.0,0004.18,0012.75,0003.16
2024-04-09 00:28:00,SystemResetWarning,0826.6,4.99,000.00,024.3,023.6,000.0,032.7,026.1,007.6,0000.0,0004.15,0013.32,0003.16
2024-04-09 00:29:00,SystemResetWarning,0826.6,5.00,000.00,024.3,023.6,000.0,032.7,026.1,007.6,0000.0,0004.09,0013.05,0003.16
2024-04-09 00:30:00,SystemResetWarning,0826.6,5.00,000.00,024.3,023.6,000.0,032.7,026.1,007.7,0000.0,0004.11,0013.09,0003.16
2024-04-09 00:31:00,SystemResetWarning,0826.6,5.01,000.00,024.3,023.6,000.0,032.7,026.1,007.7,0000.0,0004.17,0013.02,0003.17
2024-04-09 00:32:00,SystemResetWarning,0826.6,5.01,000.00,024.3,023.6,000.0,032.7,026.1,007.6,0000.0,0004.17,0012.28,0003.17
2024-04-09 00:33:00,SystemResetWarning,0826.6,5.00,000.00,024.3,023.6,000.0,032.7,026.1,007.7,0000.0,0004.13,0012.37,0003.17
2024-04-09 00:34:00,SystemResetWarning,0826.6,5.00,000.00,024.3,023.6,000.0,032.7,026.1,007.9,0000.0,0004.12,0012.00,0003.17
2024-04-09 00:35:00,SystemResetWarning,0826.6,5.00,000.00,024.3,023.6,000.0,032.7,026.1,008.0,0000.0,0004.09,0012.59,0003.18
2024-04-09 00:36:00,SystemResetWarning,0826.6,5.00,000.00,024.3,023.6,000.0,032.7,026.1,007.8,0000.0,0004.12,0013.80,0003.18
2024-04-09 00:37:00,SystemResetWarning,0826.6,5.00,000.00,024.3,023.6,000.0,032.7,026.1,007.6,0000.0,0004.16,0014.86,0003.17
2024-04-09 00:38:00,SystemResetWarning,0826.6,5.00,000.00,024.3,023.6,000.0,032.7,026.1,007.6,0000.0,0004.15,0016.32,0003.17
2024-04-09 00:39:00,SystemResetWarning,0826.6,5.00,000.00,024.3,023.6,000.0,032.8,026.1,007.5,0000.0,0004.18,0016.44,0003.18
2024-04-09 00:40:00,SystemResetWarning,0826.5,5.00,000.00,024.3,023.6,000.0,032.8,026.1,007.4,0000.0,0004.20,0016.25,0003.17
2024-04-09 00:41:00,SystemResetWarning,0826.6,5.00,000.00,024.3,023.6,000.0,032.7,026.1,007.4,0000.0,0004.22,0015.63,0003.17
2024-04-09 00:42:00,SystemResetWarning,0826.6,5.00,000.00,024.3,023.6,000.0,032.8,026.1,007.5,0000.0,0004.23,0015.72,0003.16
2024-04-09 00:43:00,SystemResetWarning,0826.6,4.99,000.00,024.3,023.6,000.0,032.8,026.1,007.5,0000.0,0004.22,0016.40,0003.16
2024-04-09 00:44:00,SystemResetWarning,0826.6,5.00,000.00,024.3,023.6,000.0,032.8,026.1,007.5,0000.0,0004.26,0016.81,0003.16
2024-04-09 00:45:00,SystemResetWarning,0826.6,5.00,000.00,024.3,023.6,000.0,032.8,026.1,007.4,0000.0,0004.23,0017.72,0003.14
2024-04-09 00:46:00,SystemResetWarning,0826.6,5.01,000.00,024.3,023.6,000.0,032.8,026.1,007.3,0000.0,0004.22,0017.83,0003.14
2024-04-09 00:47:00,SystemResetWarning,0826.6,5.00,000.00,024.3,023.6,000.0,032.8,026.1,007.3,0000.0,0004.24,0017.67,0003.15
2024-04-09 00:48:00,SystemResetWarning,0826.6,5.00,000.00,024.3,023.6,000.0,032.8,026.2,007.3,0000.0,0004.24,0018.57,0003.16
2024-04-09 00:49:00,SystemResetWarning,0826.6,5.01,000.00,024.4,023.6,000.0,032.8,026.2,007.3,0000.0,0004.23,0017.67,0003.16
2024-04-09 00:50:00,SystemResetWarning,0826.6,5.00,000.00,024.4,023.6,000.0,032.8,026.2,007.4,0000.0,0004.23,0016.80,0003.15
2024-04-09 00:51:00,SystemResetWarning,0826.6,5.00,000.00,024.4,023.6,000.0,032.8,026.2,007.3,0000.0,0004.21,0016.39,0003.15
2024-04-09 00:52:00,SystemResetWarning,0826.7,5.00,000.00,024.4,023.6,000.0,032.8,026.2,007.2,0000.0,0004.21,0016.56,0003.15
2024-04-09 00:53:00,SystemResetWarning,0826.8,5.01,000.00,024.4,023.6,000.0,032.8,026.2,007.3,0000.0,0004.20,0018.12,0003.14
2024-04-09 00:54:00,SystemResetWarning,0826.8,5.00,000.00,024.4,023.7,000.0,032.8,026.2,007.2,0000.0,0004.21,0017.29,0003.15
2024-04-09 00:55:00,SystemResetWarning,0826.8,5.00,000.00,024.4,023.7,000.0,032.8,026.2,007.2,0000.0,0004.21,0016.93,0003.14
2024-04-09 00:56:00,SystemResetWarning,0826.8,5.00,000.00,024.4,023.7,000.0,032.8,026.3,007.2,0000.0,0004.22,0016.62,0003.15
2024-04-09 00:57:00,SystemResetWarning,0826.8,5.00,000.00,024.4,023.7,000.0,032.8,026.3,007.2,0000.0,0004.20,0015.46,0003.15
2024-04-09 00:58:00,SystemResetWarning,0826.8,5.00,000.00,024.4,023.7,000.0,032.8,026.2,007.2,0000.0,0004.24,0015.25,0003.14
2024-04-09 00:59:00,SystemResetWarning,0826.8,5.00,000.00,024.4,023.7,000.0,032.9,026.3,007.2,0000.0,0004.19,0013.86,0003.12
